STARLINK-35953, 66637

Orbit data source: Space-Track

STARLINK-35953, 66637 is a payload satellite owned by SpaceX/Seattle (US) in LEO that was launched on Sun, 23 Nov 2025 UTC via an FALCON 9 launch vehicle from the Air Force Western Test Range (AFWTR). Payload-class satellites include a variety of spacecraft equipped with specific instruments for various scientific and technological missions. These include communications satellites like Starlink; space stations such as the ISS; scientific satellites like the Hubble; Earth observation satellites from companies like Planet Labs, Umbra, and HawkEye 360; GPS; miniature CubeSats for education and research; and military/defense satellites.

Loading next visibility...
Identifier
66637, 2025-271W
Orbit
LEO
Country
Flag of USUS
Related business
Manufacturer
SpaceX/Seattle
Mission
Operational Commercial Communications
Bus & Motor
STARLINK V2MO, Unknown motor
Mass
575 kg wet, ~530 kg dry
Launch date (UTC)
2025-11-23 (1 month ago)
Launch vehicle
FALCON 9
Launch site
Air Force Western Test Range (AFWTR)
Object type
Payload
Rocket body
Debris
Shape & HBR
Box + 2 Pan, 17.7 m
Radar Cross Section
36.964 m²

Expand to show TLE details & history
Last TLE update: 5 hours ago

TLE from 5 hours ago
0 STARLINK-35953
1 66637U 25271W   25355.50002315  .00014270  00000-0  36615-3 0  9999
2 66637  53.1595 145.5400 0001171  93.5910 183.7385 15.39613431  5651
Epoch: 2025-12-21T12:00Z
TLE epoch observation values (Epoch: 2025-12-21T12:00:02.000Z)
Latitude
-52.69551°
Longitude
157.2986°
Altitude
466.352 km
Speed
7.632 km/s
True Right ascension
04h 30m 28s
True Declination
-52° 31' 21"
Sunlit
Object was in daylight at epoch
Visualization orbit readout
Latitude
Unknown
Longitude
Unknown
Altitude
Unknown
Speed
Unknown
Apparent Right ascension
Unknown
Apparent Declination
Unknown
Sunlit
N/A
Visualization observer readout
Local Sidereal Time
15:47:01
Azimuth
Unknown
Elevation
Unknown
Doppler factor
Unknown
Orbital elements
Apogee altitude
448.308 km
Perigee altitude
446.71 km
Semi-major axis
6,825.646 km
Eccentricity
0.00012
Inclination
53.1595°
RAAN
145.54°
Arg. of periapsis
93.591°
True anomaly
183.73763°
Mean anomaly
183.7385°
Eccentric anomaly
183.73806°
Mean motion
3.84882 °/min
Orbital period
93.54 mins
BSTAR
0.00036615
Loading maneuver chart data...
Computing Atmospheric mass density...
Loading historical data...
Loading historical data...
Loading historical data...
Loading historical data...
Loading historical data...
Loading historical data...
Loading historical data...

Documentation

Showing up to 5 results
|